Crystal Mt.
Crystal Mt. - Green Valley & Campbell Basin
Latest observation 09/03 17:00 PDT
| Time (PDT) | Temp °F 6230' | Temp °F 5940' | RH 6230' | 24Sno in 6230' | SnoHt in 6230' | 24Sno in 5940' | SnoHt in 5940' |
|---|---|---|---|---|---|---|---|
| 09/03 17:00 | – | 40 | – | – | – | 0.2 | 2.3 |
| 09/03 16:00 | – | 46 | – | – | – | 0.1 | 1.7 |
| 09/03 15:00 | – | 44 | – | – | – | 0.1 | 1.3 |
| 09/03 14:00 | – | 44 | – | – | – | 0.2 | 1.2 |
| 09/03 13:00 | – | 40 | – | – | – | 0.2 | 1.6 |
| 09/03 12:00 | – | 39 | – | – | – | 0.2 | 1.5 |
| 09/03 11:00 | – | 40 | – | – | – | 0.2 | 1.5 |
| 09/03 10:00 | – | 37 | – | – | – | 0.3 | 1.4 |
| 09/03 09:00 | – | 37 | – | – | – | 0.3 | 1.7 |
| 09/03 08:00 | – | 37 | – | – | – | 0.3 | 1.4 |
| 09/03 07:00 | – | 36 | – | – | – | 0.3 | 1.4 |
| 09/03 06:00 | – | 35 | – | – | – | 0.3 | 1.9 |
| 09/03 05:00 | – | 35 | – | – | – | 0.3 | 1.4 |
| 09/03 04:00 | – | 35 | – | – | – | 0.4 | 2.1 |
| 09/03 03:00 | – | 33 | – | – | – | 0.3 | 2.1 |
| 09/03 02:00 | – | 35 | – | – | – | 0.3 | 2.0 |
| 09/03 01:00 | – | 34 | – | – | – | 0.3 | 2.1 |
| 09/03 00:00 | – | 34 | – | – | – | 0.3 | 2.3 |
| 09/02 23:00 | – | 37 | – | – | – | 0.3 | 2.1 |
| 09/02 22:00 | – | 37 | – | – | – | 0.3 | 2.5 |
| 09/02 21:00 | – | 39 | – | – | – | 0.4 | 3.2 |
| 09/02 20:00 | – | 41 | – | – | – | 0.3 | 3.8 |
| 09/02 19:00 | – | 41 | – | – | – | 0.3 | 3.9 |
| 09/02 18:00 | – | 41 | – | – | – | 0.3 | 3.7 |
| 09/02 17:00 | – | 40 | – | – | – | 0.3 | 3.9 |
| 09/02 16:00 | – | 39 | – | – | – | 0.3 | 3.9 |
| 09/02 15:00 | – | 40 | – | – | – | 0.2 | 3.7 |
| 09/02 14:00 | – | 41 | – | – | – | 0.3 | 3.4 |
| 09/02 13:00 | – | 45 | – | – | – | 0.2 | 2.1 |
| 09/02 12:00 | – | 44 | – | – | – | 0.3 | 2.4 |
| 09/02 11:00 | – | 43 | – | – | – | 0.3 | 2.0 |
| 09/02 10:00 | – | 43 | – | – | – | 0.3 | 2.0 |
| 09/02 09:00 | – | 44 | – | – | – | 0.2 | 1.7 |
| 09/02 08:00 | – | 41 | – | – | – | 0.3 | 1.9 |
| 09/02 07:00 | – | 40 | – | – | – | 0.2 | 1.8 |
| 09/02 06:00 | – | 41 | – | – | – | 0.3 | 1.8 |
| 09/02 05:00 | – | 41 | – | – | – | 0.3 | 1.9 |
| 09/02 04:00 | – | 42 | – | – | – | 0.2 | 1.6 |
| 09/02 03:00 | – | 41 | – | – | – | 0.3 | 1.8 |
| 09/02 02:00 | – | 41 | – | – | – | 0.2 | 1.5 |
| 09/02 01:00 | – | 42 | – | – | – | 0.2 | 1.6 |
| 09/02 00:00 | – | 42 | – | – | – | 0.2 | 1.7 |
| 09/01 23:00 | – | 43 | – | – | – | 0.2 | 2.4 |
| 09/01 22:00 | – | 44 | – | – | – | 0.2 | 2.4 |
| 09/01 21:00 | – | 44 | – | – | – | 0.4 | 2.3 |
| 09/01 20:00 | – | 45 | – | – | – | 0.2 | 2.3 |
| 09/01 19:00 | – | 46 | – | – | – | 0.2 | 2.5 |
| 09/01 18:00 | – | 47 | – | – | – | 0.2 | 2.3 |
| 09/01 17:00 | – | 46 | – | – | – | 0.2 | 1.9 |
| 09/01 16:00 | – | 48 | – | – | – | 0.2 | 1.8 |
| 09/01 15:00 | – | 54 | – | – | – | -0.0 | 2.1 |
| 09/01 14:00 | – | 56 | – | – | – | 0.0 | 2.3 |
| 09/01 13:00 | – | 60 | – | – | – | 0.0 | 2.1 |
| 09/01 12:00 | – | 59 | – | – | – | 0.2 | 2.1 |
| 09/01 11:00 | – | 60 | – | – | – | 0.3 | 2.2 |
| 09/01 10:00 | – | 55 | – | – | – | 0.2 | 2.3 |
| 09/01 09:00 | – | 55 | – | – | – | 0.2 | 2.3 |
| 09/01 08:00 | – | 51 | – | – | – | 0.2 | 2.1 |
| 09/01 07:00 | – | 49 | – | – | – | 0.4 | 2.4 |
| 09/01 06:00 | – | 50 | – | – | – | 0.2 | 2.4 |
| 09/01 05:00 | – | 51 | – | – | – | 0.4 | 2.4 |
| 09/01 04:00 | – | 53 | – | – | – | 0.2 | 2.5 |
| 09/01 03:00 | – | 58 | – | – | – | 0.4 | 2.4 |
| 09/01 02:00 | – | 57 | – | – | – | 0.4 | 2.2 |
| 09/01 01:00 | – | 58 | – | – | – | 0.4 | 2.3 |
| 09/01 00:00 | – | 53 | – | – | – | 0.2 | 2.1 |
| 08/31 23:00 | – | 56 | – | – | – | 0.4 | 2.3 |
| 08/31 22:00 | – | 56 | – | – | – | 0.4 | 2.2 |
| 08/31 21:00 | – | 55 | – | – | – | 0.2 | 2.3 |
| 08/31 20:00 | – | 57 | – | – | – | 0.2 | 2.2 |
| 08/31 19:00 | – | 58 | – | – | – | 0.2 | 2.3 |
| 08/31 18:00 | – | 63 | – | – | – | 0.2 | 2.1 |
| 08/31 17:00 | – | 66 | – | – | – | 0.0 | 2.0 |
| 08/31 16:00 | – | 66 | – | – | – | 0.0 | 2.4 |
| 08/31 15:00 | – | 66 | – | – | – | -0.0 | 2.2 |
| 08/31 14:00 | – | 66 | – | – | – | 0.0 | 2.3 |
| 08/31 13:00 | – | 64 | – | – | – | 0.0 | 2.3 |
| 08/31 12:00 | – | 60 | – | – | – | 0.2 | 2.6 |
| 08/31 11:00 | – | 60 | – | – | – | 0.4 | 2.3 |
| 08/31 10:00 | – | 57 | – | – | – | 0.2 | 2.6 |
| 08/31 09:00 | – | 57 | – | – | – | 0.1 | 2.5 |
| 08/31 08:00 | – | 54 | – | – | – | 0.2 | 2.3 |
| 08/31 07:00 | – | 51 | – | – | – | 0.2 | 2.6 |
| 08/31 06:00 | – | 53 | – | – | – | 0.4 | 2.5 |
| 08/31 05:00 | – | 55 | – | – | – | 0.4 | 2.5 |
| 08/31 04:00 | – | 54 | – | – | – | 0.2 | 2.7 |
| 08/31 03:00 | – | 54 | – | – | – | 0.2 | 2.8 |
| 08/31 02:00 | – | 53 | – | – | – | 0.4 | 2.5 |
| 08/31 01:00 | – | 53 | – | – | – | 0.4 | 2.7 |
| 08/31 00:00 | – | 52 | – | – | – | 0.4 | 2.6 |
| 08/30 23:00 | – | 48 | – | – | – | 0.2 | 2.5 |
| 08/30 22:00 | – | 44 | – | – | – | 0.4 | 2.6 |
| 08/30 21:00 | – | 44 | – | – | – | 0.4 | 2.7 |
| 08/30 20:00 | – | 43 | – | – | – | 0.2 | 2.5 |
| 08/30 19:00 | – | 44 | – | – | – | 0.2 | 2.4 |
| 08/30 18:00 | – | 48 | – | – | – | 0.2 | 2.5 |
| 08/30 17:00 | – | 51 | – | – | – | 0.0 | 2.7 |
| 08/30 16:00 | – | 53 | – | – | – | -0.0 | 2.6 |
| 08/30 15:00 | – | 52 | – | – | – | -0.0 | 2.4 |
| 08/30 14:00 | – | 53 | – | – | – | -0.0 | 1.9 |
| 08/30 13:00 | – | 48 | – | – | – | 0.2 | 1.5 |
| 08/30 12:00 | – | 49 | – | – | – | 0.4 | 1.1 |
| 08/30 11:00 | – | 47 | – | – | – | 0.4 | 1.2 |
| 08/30 10:00 | – | 40 | – | – | – | 0.2 | 1.1 |
| 08/30 09:00 | – | 41 | – | – | – | 0.2 | 1.7 |
| 08/30 08:00 | – | 37 | – | – | – | 0.3 | 1.7 |
| 08/30 07:00 | – | 34 | – | – | – | 0.3 | 1.5 |
| 08/30 06:00 | – | 33 | – | – | – | 0.3 | 1.6 |
| 08/30 05:00 | – | 34 | – | – | – | 0.4 | 2.0 |
| 08/30 04:00 | – | 34 | – | – | – | 0.3 | 1.9 |
| 08/30 03:00 | – | 36 | – | – | – | 0.3 | 1.2 |
| 08/30 02:00 | – | 37 | – | – | – | 0.3 | 1.2 |
| 08/30 01:00 | – | 37 | – | – | – | 0.3 | 1.4 |
| 08/30 00:00 | – | 37 | – | – | – | 0.3 | 1.3 |
| 08/29 23:00 | – | 38 | – | – | – | 0.3 | 1.6 |
| 08/29 22:00 | – | 38 | – | – | – | 0.3 | 1.3 |
| 08/29 21:00 | – | 38 | – | – | – | 0.3 | 1.7 |
| 08/29 20:00 | – | 38 | – | – | – | 0.3 | 1.7 |
| 08/29 19:00 | – | 39 | – | – | – | 0.2 | 1.4 |
| 08/29 18:00 | – | 39 | – | – | – | 0.3 | 1.5 |
| 08/29 17:00 | – | 40 | – | – | – | 0.2 | 1.8 |
| 08/29 16:00 | – | 41 | – | – | – | 0.3 | 1.9 |
| 08/29 15:00 | – | 42 | – | – | – | 0.2 | 2.3 |
| 08/29 14:00 | – | 39 | – | – | – | 0.2 | 3.0 |
| 08/29 13:00 | – | 39 | – | – | – | 0.2 | 3.6 |
| 08/29 12:00 | – | 37 | – | – | – | 0.3 | 3.7 |
| 08/29 11:00 | – | 35 | – | – | – | 0.3 | 3.8 |
| 08/29 10:00 | – | 37 | – | – | – | 0.3 | 3.6 |
| 08/29 09:00 | – | 36 | – | – | – | 0.3 | 3.8 |
| 08/29 08:00 | – | 35 | – | – | – | 0.3 | 3.2 |
| 08/29 07:00 | – | 36 | – | – | – | 0.2 | 1.5 |
| 08/29 06:00 | – | 36 | – | – | – | 0.2 | 1.4 |
| 08/29 05:00 | – | 37 | – | – | – | 0.2 | 1.7 |
| 08/29 04:00 | – | 39 | – | – | – | 0.2 | 1.7 |
| 08/29 03:00 | – | 40 | – | – | – | 0.2 | 2.3 |
| 08/29 02:00 | – | 41 | – | – | – | 0.3 | 1.9 |
| 08/29 01:00 | – | 42 | – | – | – | 0.2 | 2.5 |
| 08/29 00:00 | – | 42 | – | – | – | 0.2 | 2.6 |
| 08/28 23:00 | – | 43 | – | – | – | 0.2 | 2.3 |
| 08/28 22:00 | – | 43 | – | – | – | 0.2 | 2.0 |
| 08/28 21:00 | – | 44 | – | – | – | 0.2 | 2.4 |
| 08/28 20:00 | – | 45 | – | – | – | 0.2 | 2.3 |
| 08/28 19:00 | – | 46 | – | – | – | 0.2 | 2.6 |
| 08/28 18:00 | – | 46 | – | – | – | 0.2 | 2.5 |
| 08/28 17:00 | – | 47 | – | – | – | 0.2 | 2.2 |
| 08/28 16:00 | – | 49 | – | – | – | 0.2 | 2.4 |
| 08/28 15:00 | – | 51 | – | – | – | 0.2 | 2.3 |
| 08/28 14:00 | – | 52 | – | – | – | 0.2 | 2.3 |
| 08/28 13:00 | – | 57 | – | – | – | 0.1 | 2.2 |
| 08/28 12:00 | – | 54 | – | – | – | 0.2 | 2.3 |
| 08/28 11:00 | – | 56 | – | – | – | 0.2 | 2.4 |
| 08/28 10:00 | – | 49 | – | – | – | 0.2 | 2.2 |
| 08/28 09:00 | – | 51 | – | – | – | 0.2 | 2.4 |
| 08/28 08:00 | – | 46 | – | – | – | 0.2 | 2.5 |
| 08/28 07:00 | – | 43 | – | – | – | 0.2 | 2.7 |
| 08/28 06:00 | – | 40 | – | – | – | 0.3 | 2.6 |
| 08/28 05:00 | – | 39 | – | – | – | 0.2 | 2.5 |
| 08/28 04:00 | – | 39 | – | – | – | 0.2 | 2.4 |
| 08/28 03:00 | – | 40 | – | – | – | 0.2 | 2.6 |
| 08/28 02:00 | – | 41 | – | – | – | 0.2 | 2.5 |
| 08/28 01:00 | – | 42 | – | – | – | 0.4 | 2.4 |
| 08/28 00:00 | – | 43 | – | – | – | 0.2 | 2.5 |
| 08/27 23:00 | – | 43 | – | – | – | 0.2 | 2.5 |
| 08/27 22:00 | – | 44 | – | – | – | 0.2 | 2.4 |
| 08/27 21:00 | – | 45 | – | – | – | 0.2 | 2.4 |
| 08/27 20:00 | – | 46 | – | – | – | 0.2 | 2.5 |
| 08/27 19:00 | – | 48 | – | – | – | 0.2 | 2.5 |
| 08/27 18:00 | – | 49 | – | – | – | 0.2 | 2.6 |

